IRIDIUM 66 [P]

Last updated on Wed Aug 08 2018 00:20:46 GMT+0000 (Coordinated Universal Time)

1 25289U 98021E 18219.88629945 .07622768 -18986-5 12865-1 0 9997 2 25289 86.4014 49.3701 0366840 168.3051 199.3718 15.39662061 64801

Satellite not in orbit

IRIDIUM 66 [P]